Tracking 25620 objects as of 18-May-2022
HD Live streaming from Space Station
objects crossing your sky now

TIANZHI 1

Track TIANZHI 1 now!
10-day predictions


NORAD ID: 43710
Int'l Code: 2018-094A
Perigee: 486.7 km
Apogee: 507.9 km
Inclination: 97.4 °
Period: 94.4 minutes
Semi major axis: 6868 km
RCS: Unknown
Launch date: November 19, 2018
Source: People's Republic of China (PRC)
Launch site: Jiuquan Satellite Launch Center, China (JSC)
aabbcc
Your satellite tracking list
Your tracking list is empty




NASA's NSSDC Master Catalog

Two Line Element Set (TLE):
1 43710U 18094A   22138.48802078  .00003911  00000-0  15821-3 0  9994
2 43710  97.3993 148.3626 0015416 100.3304  53.3975 15.25200604194242
Source of the keplerian elements: AFSPC